Lapse_Rate
7.2 7.2 6.9 6.8 6.9 7.0 7.0 7.0 7.1 7.1 7.0 7.0 6.9 6.8 6.8 6.7 6.8 6.7 6.7 6.7 6.7 6.7 6.7 6.9 6.8 6.8 6.8 6.8 6.8 7.0 7.0 6.7
7.0 6.8 6.7 6.8 6.9 7.0 7.1 7.1 7.0 7.0 6.9 6.7 6.6 6.6 6.6 6.5 6.5 6.5 6.6 6.6 6.6 6.6 6.5 6.5 6.5 6.5 6.6 6.6 6.6 6.5 6.5 6.7
6.7 6.5 6.5 6.5 6.7 6.8 6.8 6.7 6.7 6.6 6.5 6.6 6.6 6.6 6.6 6.6 6.7 6.7 6.7 6.7 6.7 6.6 6.6 6.4 6.4 6.4 6.3 6.2 6.2 6.3 6.4 6.2
6.4 6.5 6.7 6.7 6.6 6.4 6.5 6.6 6.6 6.6 6.7 6.7 6.6 6.6 6.6 6.4 6.6 6.5 6.7 6.6 6.5 6.7 6.6 6.6 6.5 6.4 6.2 6.4 6.1 6.1 5.9 6.0
6.5 6.6 6.7 6.5 6.3 6.3 6.3 6.4 6.5 6.5 6.5 6.4 6.4 6.5 6.6 6.5 6.4 6.3 6.4 6.5 6.5 6.3 6.4 6.6 6.4 6.4 6.3 6.2 6.2 6.1 5.8 5.7
6.0 6.4 6.4 6.4 6.4 6.4 6.5 6.5 6.4 6.4 6.4 6.6 6.6 6.7 6.7 6.6 6.5 6.4 6.2 6.0 6.1 6.1 5.9 6.0 6.1 6.1 6.1 6.0 6.0 6.1 6.0 6.0
5.9 6.5 6.6 6.6 6.5 6.4 6.5 6.6 6.6 6.6 6.6 6.7 6.7 6.6 6.4 6.3 6.2 6.1 6.1 5.9 5.8 5.8 5.8 5.8 5.9 5.9 6.0 5.9 5.8 5.7 5.7 5.7
6.1 6.0 6.5 6.4 6.4 6.5 6.7 6.9 6.7 6.5 6.4 6.5 6.4 6.3 6.2 6.1 5.9 5.8 5.8 5.8 5.8 5.7 5.7 5.7 5.7 5.6 5.7 5.8 5.9 5.9 5.8 5.9
6.5 6.1 6.5 6.6 6.6 6.8 6.8 6.6 6.5 6.4 6.4 6.3 5.9 5.7 5.5 5.7 5.7 5.6 5.6 5.7 5.7 5.8 5.8 5.7 5.8 5.8 5.6 5.6 5.6 5.6 5.5 5.4
6.5 6.1 6.7 6.7 6.7 6.6 6.7 6.5 6.3 6.1 6.1 6.0 6.0 5.9 6.0 6.0 6.0 5.9 5.7 5.7 5.6 5.7 5.8 5.7 5.5 5.5 5.5 5.5 5.2 5.1 5.2 5.3
6.5 6.2 6.7 6.9 6.8 6.6 6.7 6.6 6.3 6.0 6.0 5.9 5.9 5.6 5.6 5.5 5.5 5.8 5.7 5.5 5.6 5.6 5.7 5.6 5.5 5.8 5.8 5.7 5.6 5.9 5.6 5.2
6.7 6.4 6.5 7.0 6.6 6.8 6.6 6.5 6.2 6.3 6.2 6.1 5.9 5.7 5.7 5.6 5.4 5.4 5.5 5.3 5.3 5.5 5.6 5.8 5.7 5.6 5.9 5.6 5.7 5.4 5.5 5.6
6.7 6.2 7.0 6.9 6.8 6.8 6.7 6.5 6.4 6.3 6.1 5.9 5.6 5.5 5.2 5.2 5.2 5.2 5.4 5.4 5.4 5.6 5.6 5.6 5.6 6.0 5.8 5.9 5.9 6.2 5.8 5.6
7.2 6.9 6.9 6.9 6.7 7.0 6.8 6.6 6.3 6.3 5.9 5.8 5.5 5.4 5.3 5.4 5.4 5.6 5.7 5.7 5.7 5.8 5.9 5.9 6.0 6.3 6.2 6.1 5.8 5.8 5.9 5.5
7.1 7.0 7.0 7.0 6.9 6.6 6.5 6.4 6.3 6.0 5.7 5.6 5.6 5.6 5.9 6.1 6.2 6.1 5.9 5.8 5.7 5.8 6.1 6.2 6.1 6.3 6.6 6.4 6.1 5.9 5.8 5.9
7.2 7.1 6.9 6.8 6.9 6.7 6.6 6.3 6.0 5.8 5.6 5.7 6.0 5.7 6.3 6.4 6.3 6.3 6.2 6.1 6.0 6.2 6.2 6.3 6.4 6.3 6.4 6.5 6.3 6.1 6.2 6.2
6.7 6.7 6.7 6.7 6.6 6.5 6.1 6.1 6.1 6.1 6.1 6.2 6.9 6.6 6.4 6.2 6.1 6.0 6.0 6.1 6.3 6.3 6.4 6.5 6.6 6.5 6.5 6.4 6.4 6.4 5.9 6.1
6.7 6.7 6.5 6.3 5.8 5.9 6.0 6.1 6.1 6.2 6.5 6.7 6.7 6.6 6.3 6.0 5.9 5.9 6.0 6.1 6.3 6.5 6.4 6.4 6.4 6.3 6.3 6.3 6.1 6.1 5.8 5.6
6.4 6.3 6.1 5.7 5.7 6.1 6.3 6.4 6.7 6.6 6.5 6.4 6.2 6.1 6.0 5.9 6.0 6.1 6.3 6.6 6.4 6.3 5.9 5.9 5.6 5.6 5.3 5.5 5.6 5.6 5.6 5.4
6.2 6.0 6.1 6.0 6.2 6.4 6.2 6.1 6.1 6.2 6.2 5.9 5.9 6.2 6.3 6.4 6.4 6.4 6.3 6.3 6.1 5.9 5.9 5.9 5.7 5.6 5.6 5.7 5.6 6.1 6.5 6.6
Wind_Speed
11 11 8 6 6 6 6 6 7 7 6 6 6 6 5 5 5 6 7 7 7 6 6 5 5 5 7 8 9 12 13 9
8 6 8 7 11 8 6 5 4 4 5 4 3 5 7 5 4 6 5 6 6 5 5 4 5 6 4 6 11 15 16 6
4 8 5 4 6 9 9 8 7 7 6 5 6 5 2 3 8 3 1 2 3 3 4 7 10 11 9 7 12 12 6 9
9 4 5 3 3 3 4 2 2 4 6 5 5 6 5 5 3 7 8 7 11 10 9 10 15 12 7 12 11 8 11 5
8 5 3 2 6 5 1 2 3 3 1 7 9 8 6 7 8 5 6 6 10 8 7 8 11 10 10 11 11 11 11 9
8 7 4 1 3 0 3 2 6 3 8 4 7 8 9 9 9 11 11 11 10 10 11 9 9 9 9 9 9 9 10 9
9 8 5 3 1 2 2 3 3 4 3 5 7 7 6 9 10 10 10 11 11 10 11 10 9 10 9 10 10 9 9 10
8 8 6 4 2 1 1 2 2 2 3 7 5 6 7 8 8 9 10 11 11 12 11 9 9 11 9 10 10 12 11 10
10 7 8 4 4 4 1 4 3 2 3 2 3 5 7 9 9 8 12 13 13 13 12 12 9 9 11 9 11 13 13 12
8 8 9 6 5 5 1 2 2 4 2 3 2 4 7 10 8 8 13 13 14 9 10 10 10 10 9 10 10 11 14 13
8 10 9 7 7 4 2 2 6 6 4 5 7 7 7 9 10 12 14 13 9 9 10 10 10 11 11 11 10 10 11 13
9 9 5 3 2 2 4 3 4 4 4 5 6 7 9 10 11 12 14 9 9 10 11 11 11 12 14 14 11 11 10 10
5 10 5 3 3 3 4 4 5 5 5 5 9 10 11 11 11 10 11 10 10 11 11 13 11 11 12 12 12 14 14 12
7 7 4 3 3 4 3 4 4 5 5 10 10 11 14 13 11 10 11 10 11 11 12 10 11 10 11 12 14 13 13 14
9 8 8 8 6 5 6 5 5 6 9 9 11 18 17 16 15 12 11 10 10 11 11 14 12 11 13 12 14 14 12 12
9 7 6 7 9 7 8 6 7 7 8 9 10 18 17 18 17 15 11 9 11 11 10 11 12 13 11 12 15 16 15 15
5 4 6 5 5 4 5 8 9 10 10 11 11 11 18 19 18 15 12 10 10 11 11 10 10 10 10 10 12 11 10 6
3 5 3 3 4 5 9 9 7 9 10 10 9 10 11 16 19 14 14 11 9 9 9 10 7 8 8 7 7 5 8 6
4 7 9 7 10 8 8 9 11 11 12 10 14 11 10 11 12 11 9 10 10 8 7 7 6 6 10 8 4 4 4 4
9 10 11 10 9 12 11 11 8 9 11 11 10 10 10 13 10 12 13 10 8 7 5 6 7 7 5 6 6 6 4 4
Wind_Direction
129 134 122 117 107 100 87 82 82 84 89 90 95 98 90 82 74 60 44 33 23 12 0 357 343 335 335 331 318 302 290 356
128 143 134 156 134 126 113 103 101 117 117 116 162 168 151 152 138 73 33 17 8 354 343 321 294 278 268 290 290 286 264 274
137 131 96 86 88 116 161 157 178 179 176 175 241 246 317 161 81 63 15 328 277 258 276 280 263 246 231 244 274 269 315 287
135 137 111 116 94 89 107 106 70 25 16 356 322 12 354 318 220 192 202 215 233 226 226 251 258 313 251 223 259 344 287 304
147 136 107 346 73 15 354 356 33 26 38 11 339 340 349 321 333 300 317 232 309 287 287 298 343 318 319 312 311 289 279 297
152 132 140 132 320 122 30 311 28 344 28 341 354 332 347 351 332 334 316 329 324 312 311 322 301 301 294 288 283 289 293 305
160 143 177 159 151 30 3 310 46 12 14 29 2 345 352 335 338 318 322 317 315 317 313 309 303 286 277 287 282 276 274 274
169 176 171 169 224 128 258 112 32 17 28 41 17 349 352 323 328 319 314 318 321 317 315 311 303 297 278 265 270 279 272 267
166 187 153 179 178 184 218 78 316 347 17 48 8 334 332 319 313 311 313 319 311 297 299 291 281 282 284 263 261 256 255 259
175 168 165 182 162 180 201 115 313 277 283 334 335 327 317 308 305 308 312 307 297 298 295 289 288 285 277 274 279 261 256 247
196 157 189 175 158 220 199 208 261 349 326 339 18 315 338 317 307 307 312 300 292 294 293 290 285 281 274 270 256 258 263 249
207 156 181 178 181 213 258 237 263 280 329 25 356 328 339 319 307 301 303 297 295 295 298 292 293 289 285 289 287 275 249 250
164 104 67 250 226 302 316 308 329 330 325 9 336 352 322 314 304 304 300 295 304 300 293 288 282 281 283 268 263 256 255 251
80 97 60 359 59 34 10 336 338 312 318 331 317 335 317 312 323 310 307 303 299 293 290 288 283 280 278 280 280 270 257 234
85 87 79 54 17 30 6 333 330 333 342 325 333 326 319 319 315 313 312 304 298 305 302 297 291 287 281 285 282 273 279 258
84 75 72 66 31 31 0 348 331 331 306 316 324 317 318 322 320 316 315 304 301 301 307 316 301 291 290 285 284 285 279 282
73 70 44 48 46 17 349 335 317 317 320 325 314 319 326 322 320 319 311 303 308 305 305 311 311 304 310 319 323 313 310 331
35 352 358 335 312 306 314 332 318 309 319 323 326 324 320 320 319 319 302 299 309 315 309 329 2 327 320 328 339 348 349 339
324 310 309 317 344 329 327 325 330 322 329 332 328 321 322 321 323 311 309 307 311 344 25 26 17 15 357 319 327 335 324 318
324 323 315 319 331 336 335 335 332 333 341 334 319 319 321 327 317 317 323 341 345 343 352 350 351 334 338 312 316 300 266 261